Find Starlink 31127

NORAD ID: 58765 Int'l Des: 2024-011 Owner: SPXS Country: US Constellation: starlink operational
LEOCIRCULAR

現在のビュー

3D地球を読み込み中...

About Starlink 31127

Starlink 31127 (NORAD 58765) is a starlink constellation satellite (v2 mini) launched Jan 14, 2024 by SPXS of US. It operates in LEO, CIRCULAR orbit with a mass of 730.00 kg.

Starlink 31127について

説明を読み込み中...

次回通過

Passes for default location (London). Set your location on the main map for personalized predictions.

高度履歴

Loading altitude history...

軌道要素

1 58765U 24011A 26168.51577968 .00005210 00000-0 18804-3 0 9992
2 58765 53.1622 270.0317 0001265 91.8473 268.2673 15.30175012135556
Epoch: Jun 17, 2026 • Age: 14 hours

現在のステータス

高度 494.5 km
速度 7.62 km/s
衛星直下点 -52.76°S, 109.38°W
打ち上げ日 Jan 14, 2024
運用期間 2.4 years
タイプ internet

技術仕様

分類 Payload
質量 730.00 kg
乾燥質量 700.00 kg
総質量 730.00 kg
長さ 0.30 m
直径 4.10 m
スパン 29.00 m
形状 Box + pan
製造者 SPXS
バスタイプ Starlink V2M
フェーズステータス In Orbit
所有者/国 SPXS/US

Most Searched